Torna al catalogo

IRIDIUM 33 DEB

AttivoPO
NORAD 35625·DEBRIS·🇺🇸 United States

Lanciato Sep 14, 1997 da Baikonur Cosmodrome

Loading…

Prossimi Passaggi (prossime 24 ore)

TLE

In scadenzaSource: Space-Track

Epoca: Sep 9, 2026, 19:13 UTC

1 35625U 97051QX  26252.80098529  .00002586  00000-0  89541-3 0  9992
2 35625  86.1836 263.8823 0104501  44.0263  77.7811 14.32296597699189

Traccia IRIDIUM 33 DEB in tempo reale con AllMySat

Download on the App Store